This is the latest recevied weather packets stored in our database for station/object KC5DAQ-26. If no packets are shown the sender has not sent any weather packets the latest 10 day(s).
| Time | Temp. | Humidity | Pressure | Rain* | Wind** | Luminosity | Snow |
|---|---|---|---|---|---|---|---|
| 1787836458 | 28.33° C | 89% | 1018.3 hPa | 0 mm | - | 63 W/m² | - |
| 1787836398 | 28.33° C | 89% | 1018.5 hPa | 0 mm | - | 63 W/m² | - |
| 1787836337 | 28.33° C | 89% | 1018.4 hPa | 0 mm | - | 63 W/m² | - |
| 1787836279 | 28.33° C | 89% | 1018.4 hPa | 0 mm | - | 60 W/m² | - |
| 1787836218 | 28.33° C | 89% | 1018.5 hPa | 0 mm | - | 51 W/m² | - |
| 1787836158 | 28.33° C | 89% | 1018.5 hPa | 0 mm | - | 51 W/m² | - |
| 1787836098 | 28.33° C | 89% | 1018.4 hPa | 0 mm | - | 49 W/m² | - |
| 1787836038 | 28.33° C | 89% | 1018.4 hPa | 0 mm | - | 49 W/m² | - |
| 1787835978 | 28.33° C | 89% | 1018.4 hPa | 0 mm | - | 51 W/m² | - |
| 1787835919 | 28.33° C | 89% | 1018.4 hPa | 0 mm | - | 51 W/m² | - |
| 1787835860 | 28.33° C | 89% | 1018.5 hPa | 0 mm | - | 51 W/m² | - |
| 1787835799 | 28.33° C | 89% | 1018.4 hPa | 0 mm | - | 51 W/m² | - |
| 1787835737 | 28.33° C | 89% | 1018.4 hPa | 0 mm | - | 51 W/m² | - |
| 1787835678 | 28.33° C | 89% | 1018.5 hPa | 0 mm | - | 48 W/m² | - |
| 1787835618 | 28.33° C | 89% | 1018.4 hPa | 0 mm | - | 48 W/m² | - |
| 1787835562 | 27.78° C | 89% | 1018.4 hPa | 0 mm | - | 51 W/m² | - |
| 1787835500 | 28.33° C | 89% | 1018.4 hPa | 0 mm | - | 63 W/m² | - |
| 1787835438 | 27.78° C | 89% | 1018.4 hPa | 0 mm | - | 76 W/m² | - |
| 1787835377 | 27.78° C | 89% | 1018.3 hPa | 0 mm | - | 62 W/m² | - |
| 1787835316 | 27.78° C | 89% | 1018.3 hPa | 0 mm | - | 56 W/m² | - |
| 1787835258 | 27.78° C | 89% | 1018.2 hPa | 0 mm | - | 53 W/m² | - |
| 1787835197 | 27.78° C | 89% | 1018.3 hPa | 0 mm | - | 49 W/m² | - |
| 1787835138 | 28.33° C | 89% | 1018.2 hPa | 0 mm | - | 46 W/m² | - |
| 1787835078 | 28.33° C | 89% | 1018.2 hPa | 0 mm | - | 46 W/m² | - |
| 1787835017 | 28.33° C | 89% | 1018.2 hPa | 0 mm | - | 48 W/m² | - |
* Rain latest hour (hover to see other rain measurements)
** Current wind speed in m/s (hover to see current wind gust speed)